owner,sensor,date,latitude,longitude,vertical_datum,sea_water_temperature,qcFlag 
DISL,ioos:station:DISL:DISL:1,2016-02-01T00:00:00Z,30.2513,-88.0778,-1.72,12.06,2 
DISL,ioos:station:DISL:DISL:1,2016-02-01T00:30:00Z,30.2513,-88.0778,-1.72,12.07,2 
DISL,ioos:station:DISL:DISL:1,2016-02-01T01:00:00Z,30.2513,-88.0778,-1.72,12.01,2 
DISL,ioos:station:DISL:DISL:1,2016-02-01T01:30:00Z,30.2513,-88.0778,-1.72,11.94,2 
DISL,ioos:station:DISL:DISL:1,2016-02-01T02:00:00Z,30.2513,-88.0778,-1.72,11.84,2 
DISL,ioos:station:DISL:DISL:1,2016-02-01T02:30:00Z,30.2513,-88.0778,-1.72,11.75,2 
DISL,ioos:station:DISL:DISL:1,2016-02-01T03:00:00Z,30.2513,-88.0778,-1.72,11.52,2 
DISL,ioos:station:DISL:DISL:1,2016-02-01T03:30:00Z,30.2513,-88.0778,-1.72,11.41,2 
DISL,ioos:station:DISL:DISL:1,2016-02-01T04:00:00Z,30.2513,-88.0778,-1.72,11.38,2 
DISL,ioos:station:DISL:DISL:1,2016-02-01T04:30:00Z,30.2513,-88.0778,-1.72,11.37,2 
DISL,ioos:station:DISL:DISL:1,2016-02-01T05:00:00Z,30.2513,-88.0778,-1.72,11.39,2 
DISL,ioos:station:DISL:DISL:1,2016-02-01T05:30:00Z,30.2513,-88.0778,-1.72,11.39,2 
DISL,ioos:station:DISL:DISL:1,2016-02-01T06:00:00Z,30.2513,-88.0778,-1.72,11.42,2 
DISL,ioos:station:DISL:DISL:1,2016-02-01T06:30:00Z,30.2513,-88.0778,-1.72,11.49,2 
DISL,ioos:station:DISL:DISL:1,2016-02-01T07:00:00Z,30.2513,-88.0778,-1.72,11.49,2 
DISL,ioos:station:DISL:DISL:1,2016-02-01T07:30:00Z,30.2513,-88.0778,-1.72,11.51,2 
DISL,ioos:station:DISL:DISL:1,2016-02-01T08:00:00Z,30.2513,-88.0778,-1.72,11.6,2 
DISL,ioos:station:DISL:DISL:1,2016-02-01T08:30:00Z,30.2513,-88.0778,-1.72,11.66,2 
DISL,ioos:station:DISL:DISL:1,2016-02-01T09:00:00Z,30.2513,-88.0778,-1.72,11.82,2 
DISL,ioos:station:DISL:DISL:1,2016-02-01T09:30:00Z,30.2513,-88.0778,-1.72,11.93,2 
DISL,ioos:station:DISL:DISL:1,2016-02-01T10:00:00Z,30.2513,-88.0778,-1.72,12.05,2 
DISL,ioos:station:DISL:DISL:1,2016-02-01T10:30:00Z,30.2513,-88.0778,-1.72,12.02,2 
DISL,ioos:station:DISL:DISL:1,2016-02-01T11:00:00Z,30.2513,-88.0778,-1.72,12.15,2 
DISL,ioos:station:DISL:DISL:1,2016-02-01T11:30:00Z,30.2513,-88.0778,-1.72,12.18,2 
DISL,ioos:station:DISL:DISL:1,2016-02-01T12:00:00Z,30.2513,-88.0778,-1.72,12.15,2 
DISL,ioos:station:DISL:DISL:1,2016-02-01T12:30:00Z,30.2513,-88.0778,-1.72,12.32,2 
DISL,ioos:station:DISL:DISL:1,2016-02-01T13:00:00Z,30.2513,-88.0778,-1.72,12.25,2 
DISL,ioos:station:DISL:DISL:1,2016-02-01T13:30:00Z,30.2513,-88.0778,-1.72,12.33,2 
DISL,ioos:station:DISL:DISL:1,2016-02-01T14:00:00Z,30.2513,-88.0778,-1.72,12.0,2 
DISL,ioos:station:DISL:DISL:1,2016-02-01T14:30:00Z,30.2513,-88.0778,-1.72,11.99,2 
DISL,ioos:station:DISL:DISL:1,2016-02-01T15:00:00Z,30.2513,-88.0778,-1.72,11.95,2 
DISL,ioos:station:DISL:DISL:1,2016-02-01T15:30:00Z,30.2513,-88.0778,-1.72,11.8,2 
DISL,ioos:station:DISL:DISL:1,2016-02-01T16:00:00Z,30.2513,-88.0778,-1.72,11.78,2 
DISL,ioos:station:DISL:DISL:1,2016-02-01T16:30:00Z,30.2513,-88.0778,-1.72,11.8,2 
DISL,ioos:station:DISL:DISL:1,2016-02-01T17:00:00Z,30.2513,-88.0778,-1.72,11.79,2 
DISL,ioos:station:DISL:DISL:1,2016-02-01T17:30:00Z,30.2513,-88.0778,-1.72,11.89,2 
DISL,ioos:station:DISL:DISL:1,2016-02-01T18:00:00Z,30.2513,-88.0778,-1.72,11.84,2 
DISL,ioos:station:DISL:DISL:1,2016-02-01T18:30:00Z,30.2513,-88.0778,-1.72,12.05,2 
DISL,ioos:station:DISL:DISL:1,2016-02-01T19:00:00Z,30.2513,-88.0778,-1.72,12.09,2 
DISL,ioos:station:DISL:DISL:1,2016-02-01T19:30:00Z,30.2513,-88.0778,-1.72,12.12,2 
DISL,ioos:station:DISL:DISL:1,2016-02-01T20:00:00Z,30.2513,-88.0778,-1.72,12.67,2 
DISL,ioos:station:DISL:DISL:1,2016-02-01T20:30:00Z,30.2513,-88.0778,-1.72,12.64,2 
DISL,ioos:station:DISL:DISL:1,2016-02-01T21:00:00Z,30.2513,-88.0778,-1.72,13.46,2 
DISL,ioos:station:DISL:DISL:1,2016-02-01T21:30:00Z,30.2513,-88.0778,-1.72,13.94,2 
DISL,ioos:station:DISL:DISL:1,2016-02-01T22:00:00Z,30.2513,-88.0778,-1.72,13.94,2 
DISL,ioos:station:DISL:DISL:1,2016-02-01T22:30:00Z,30.2513,-88.0778,-1.72,14.64,2 
DISL,ioos:station:DISL:DISL:1,2016-02-01T23:00:00Z,30.2513,-88.0778,-1.72,14.17,2 
DISL,ioos:station:DISL:DISL:1,2016-02-01T23:30:00Z,30.2513,-88.0778,-1.72,14.21,2 
DISL,ioos:station:DISL:DISL:1,2016-02-02T00:00:00Z,30.2513,-88.0778,-1.72,14.32,2 
DISL,ioos:station:DISL:DISL:1,2016-02-02T00:30:00Z,30.2513,-88.0778,-1.72,13.91,2 
DISL,ioos:station:DISL:DISL:1,2016-02-02T01:00:00Z,30.2513,-88.0778,-1.72,12.91,2 
DISL,ioos:station:DISL:DISL:1,2016-02-02T01:30:00Z,30.2513,-88.0778,-1.72,12.61,2 
DISL,ioos:station:DISL:DISL:1,2016-02-02T02:00:00Z,30.2513,-88.0778,-1.72,12.48,2 
DISL,ioos:station:DISL:DISL:1,2016-02-02T02:30:00Z,30.2513,-88.0778,-1.72,12.53,2 
DISL,ioos:station:DISL:DISL:1,2016-02-02T03:00:00Z,30.2513,-88.0778,-1.72,12.38,2 
DISL,ioos:station:DISL:DISL:1,2016-02-02T03:30:00Z,30.2513,-88.0778,-1.72,12.42,2 
DISL,ioos:station:DISL:DISL:1,2016-02-02T04:00:00Z,30.2513,-88.0778,-1.72,12.52,2 
DISL,ioos:station:DISL:DISL:1,2016-02-02T04:30:00Z,30.2513,-88.0778,-1.72,12.71,2 
DISL,ioos:station:DISL:DISL:1,2016-02-02T05:00:00Z,30.2513,-88.0778,-1.72,12.8,2 
DISL,ioos:station:DISL:DISL:1,2016-02-02T05:30:00Z,30.2513,-88.0778,-1.72,12.83,2 
DISL,ioos:station:DISL:DISL:1,2016-02-02T06:00:00Z,30.2513,-88.0778,-1.72,12.83,2 
DISL,ioos:station:DISL:DISL:1,2016-02-02T06:30:00Z,30.2513,-88.0778,-1.72,13.01,2 
DISL,ioos:station:DISL:DISL:1,2016-02-02T07:00:00Z,30.2513,-88.0778,-1.72,13.1,2 
DISL,ioos:station:DISL:DISL:1,2016-02-02T07:30:00Z,30.2513,-88.0778,-1.72,13.13,2 
DISL,ioos:station:DISL:DISL:1,2016-02-02T08:00:00Z,30.2513,-88.0778,-1.72,13.14,2 
DISL,ioos:station:DISL:DISL:1,2016-02-02T08:30:00Z,30.2513,-88.0778,-1.72,13.15,2 
DISL,ioos:station:DISL:DISL:1,2016-02-02T09:00:00Z,30.2513,-88.0778,-1.72,13.07,2 
DISL,ioos:station:DISL:DISL:1,2016-02-02T09:30:00Z,30.2513,-88.0778,-1.72,13.02,2 
DISL,ioos:station:DISL:DISL:1,2016-02-02T10:00:00Z,30.2513,-88.0778,-1.72,13.06,2 
DISL,ioos:station:DISL:DISL:1,2016-02-02T10:30:00Z,30.2513,-88.0778,-1.72,12.99,2 
DISL,ioos:station:DISL:DISL:1,2016-02-02T11:00:00Z,30.2513,-88.0778,-1.72,12.88,2 
DISL,ioos:station:DISL:DISL:1,2016-02-02T11:30:00Z,30.2513,-88.0778,-1.72,12.75,2 
DISL,ioos:station:DISL:DISL:1,2016-02-02T12:00:00Z,30.2513,-88.0778,-1.72,12.87,2 
DISL,ioos:station:DISL:DISL:1,2016-02-02T12:30:00Z,30.2513,-88.0778,-1.72,12.9,2 
DISL,ioos:station:DISL:DISL:1,2016-02-02T13:00:00Z,30.2513,-88.0778,-1.72,13.17,2 
DISL,ioos:station:DISL:DISL:1,2016-02-02T13:30:00Z,30.2513,-88.0778,-1.72,13.18,2 
DISL,ioos:station:DISL:DISL:1,2016-02-02T14:00:00Z,30.2513,-88.0778,-1.72,13.05,2 
DISL,ioos:station:DISL:DISL:1,2016-02-02T14:30:00Z,30.2513,-88.0778,-1.72,13.11,2 
DISL,ioos:station:DISL:DISL:1,2016-02-02T15:00:00Z,30.2513,-88.0778,-1.72,13.23,2 
DISL,ioos:station:DISL:DISL:1,2016-02-02T15:30:00Z,30.2513,-88.0778,-1.72,13.97,2 
DISL,ioos:station:DISL:DISL:1,2016-02-02T16:00:00Z,30.2513,-88.0778,-1.72,14.06,2 
DISL,ioos:station:DISL:DISL:1,2016-02-02T16:30:00Z,30.2513,-88.0778,-1.72,14.05,2 
DISL,ioos:station:DISL:DISL:1,2016-02-02T17:00:00Z,30.2513,-88.0778,-1.72,13.94,2 
DISL,ioos:station:DISL:DISL:1,2016-02-02T17:30:00Z,30.2513,-88.0778,-1.72,14.15,2 
DISL,ioos:station:DISL:DISL:1,2016-02-02T18:00:00Z,30.2513,-88.0778,-1.72,14.31,2 
DISL,ioos:station:DISL:DISL:1,2016-02-02T18:30:00Z,30.2513,-88.0778,-1.72,14.66,2 
DISL,ioos:station:DISL:DISL:1,2016-02-02T19:00:00Z,30.2513,-88.0778,-1.72,14.55,2 
DISL,ioos:station:DISL:DISL:1,2016-02-02T19:30:00Z,30.2513,-88.0778,-1.72,14.64,2 
DISL,ioos:station:DISL:DISL:1,2016-02-02T20:00:00Z,30.2513,-88.0778,-1.72,14.62,2 
DISL,ioos:station:DISL:DISL:1,2016-02-02T20:30:00Z,30.2513,-88.0778,-1.72,14.58,2 
DISL,ioos:station:DISL:DISL:1,2016-02-02T21:00:00Z,30.2513,-88.0778,-1.72,14.58,2 
DISL,ioos:station:DISL:DISL:1,2016-02-02T21:30:00Z,30.2513,-88.0778,-1.72,14.72,2 
DISL,ioos:station:DISL:DISL:1,2016-02-02T22:00:00Z,30.2513,-88.0778,-1.72,14.71,2 
DISL,ioos:station:DISL:DISL:1,2016-02-02T22:30:00Z,30.2513,-88.0778,-1.72,14.92,2 
DISL,ioos:station:DISL:DISL:1,2016-02-02T23:00:00Z,30.2513,-88.0778,-1.72,14.8,2 
DISL,ioos:station:DISL:DISL:1,2016-02-02T23:30:00Z,30.2513,-88.0778,-1.72,14.73,2 
DISL,ioos:station:DISL:DISL:1,2016-02-03T00:00:00Z,30.2513,-88.0778,-1.72,14.68,2 
DISL,ioos:station:DISL:DISL:1,2016-02-03T00:30:00Z,30.2513,-88.0778,-1.72,14.59,2 
DISL,ioos:station:DISL:DISL:1,2016-02-03T01:00:00Z,30.2513,-88.0778,-1.72,14.53,2 
DISL,ioos:station:DISL:DISL:1,2016-02-03T01:30:00Z,30.2513,-88.0778,-1.72,14.42,2 
DISL,ioos:station:DISL:DISL:1,2016-02-03T02:00:00Z,30.2513,-88.0778,-1.72,13.52,2 
DISL,ioos:station:DISL:DISL:1,2016-02-03T02:30:00Z,30.2513,-88.0778,-1.72,13.6,2 
DISL,ioos:station:DISL:DISL:1,2016-02-03T03:00:00Z,30.2513,-88.0778,-1.72,13.61,2 
DISL,ioos:station:DISL:DISL:1,2016-02-03T03:30:00Z,30.2513,-88.0778,-1.72,13.44,2 
DISL,ioos:station:DISL:DISL:1,2016-02-03T04:00:00Z,30.2513,-88.0778,-1.72,13.46,2 
DISL,ioos:station:DISL:DISL:1,2016-02-03T04:30:00Z,30.2513,-88.0778,-1.72,13.43,2 
DISL,ioos:station:DISL:DISL:1,2016-02-03T05:00:00Z,30.2513,-88.0778,-1.72,13.52,2 
DISL,ioos:station:DISL:DISL:1,2016-02-03T05:30:00Z,30.2513,-88.0778,-1.72,13.66,2 
DISL,ioos:station:DISL:DISL:1,2016-02-03T06:00:00Z,30.2513,-88.0778,-1.72,13.9,2 
DISL,ioos:station:DISL:DISL:1,2016-02-03T06:30:00Z,30.2513,-88.0778,-1.72,14.0,2 
DISL,ioos:station:DISL:DISL:1,2016-02-03T07:00:00Z,30.2513,-88.0778,-1.72,14.05,2 
DISL,ioos:station:DISL:DISL:1,2016-02-03T07:30:00Z,30.2513,-88.0778,-1.72,14.08,2 
DISL,ioos:station:DISL:DISL:1,2016-02-03T08:00:00Z,30.2513,-88.0778,-1.72,14.28,2 
DISL,ioos:station:DISL:DISL:1,2016-02-03T08:30:00Z,30.2513,-88.0778,-1.72,14.38,2 
DISL,ioos:station:DISL:DISL:1,2016-02-03T09:00:00Z,30.2513,-88.0778,-1.72,14.54,2 
DISL,ioos:station:DISL:DISL:1,2016-02-03T09:30:00Z,30.2513,-88.0778,-1.72,14.6,2 
DISL,ioos:station:DISL:DISL:1,2016-02-03T10:00:00Z,30.2513,-88.0778,-1.72,14.56,2 
DISL,ioos:station:DISL:DISL:1,2016-02-03T10:30:00Z,30.2513,-88.0778,-1.72,14.46,2 
DISL,ioos:station:DISL:DISL:1,2016-02-03T11:00:00Z,30.2513,-88.0778,-1.72,14.3,2 
DISL,ioos:station:DISL:DISL:1,2016-02-03T11:30:00Z,30.2513,-88.0778,-1.72,14.11,2 
DISL,ioos:station:DISL:DISL:1,2016-02-03T12:00:00Z,30.2513,-88.0778,-1.72,14.42,2 
DISL,ioos:station:DISL:DISL:1,2016-02-03T12:30:00Z,30.2513,-88.0778,-1.72,14.45,2 
DISL,ioos:station:DISL:DISL:1,2016-02-03T13:00:00Z,30.2513,-88.0778,-1.72,14.41,2 
DISL,ioos:station:DISL:DISL:1,2016-02-03T13:30:00Z,30.2513,-88.0778,-1.72,13.92,2 
DISL,ioos:station:DISL:DISL:1,2016-02-03T14:00:00Z,30.2513,-88.0778,-1.72,13.82,2 
DISL,ioos:station:DISL:DISL:1,2016-02-03T14:30:00Z,30.2513,-88.0778,-1.72,13.71,2 
DISL,ioos:station:DISL:DISL:1,2016-02-03T15:00:00Z,30.2513,-88.0778,-1.72,13.68,2 
DISL,ioos:station:DISL:DISL:1,2016-02-03T15:30:00Z,30.2513,-88.0778,-1.72,13.71,2 
DISL,ioos:station:DISL:DISL:1,2016-02-03T16:00:00Z,30.2513,-88.0778,-1.72,13.65,2 
DISL,ioos:station:DISL:DISL:1,2016-02-03T16:30:00Z,30.2513,-88.0778,-1.72,13.63,2 
DISL,ioos:station:DISL:DISL:1,2016-02-03T17:00:00Z,30.2513,-88.0778,-1.72,13.65,2 
DISL,ioos:station:DISL:DISL:1,2016-02-03T17:30:00Z,30.2513,-88.0778,-1.72,13.79,2 
DISL,ioos:station:DISL:DISL:1,2016-02-03T18:00:00Z,30.2513,-88.0778,-1.72,14.05,2 
DISL,ioos:station:DISL:DISL:1,2016-02-03T18:30:00Z,30.2513,-88.0778,-1.72,14.39,2 
DISL,ioos:station:DISL:DISL:1,2016-02-03T19:00:00Z,30.2513,-88.0778,-1.72,14.4,2 
DISL,ioos:station:DISL:DISL:1,2016-02-03T19:30:00Z,30.2513,-88.0778,-1.72,14.57,2 
DISL,ioos:station:DISL:DISL:1,2016-02-03T20:00:00Z,30.2513,-88.0778,-1.72,14.51,2 
DISL,ioos:station:DISL:DISL:1,2016-02-03T20:30:00Z,30.2513,-88.0778,-1.72,14.61,2 
DISL,ioos:station:DISL:DISL:1,2016-02-03T21:00:00Z,30.2513,-88.0778,-1.72,14.56,2 
DISL,ioos:station:DISL:DISL:1,2016-02-03T21:30:00Z,30.2513,-88.0778,-1.72,14.8,2 
DISL,ioos:station:DISL:DISL:1,2016-02-03T22:00:00Z,30.2513,-88.0778,-1.72,14.67,2 
DISL,ioos:station:DISL:DISL:1,2016-02-03T22:30:00Z,30.2513,-88.0778,-1.72,14.85,2 
DISL,ioos:station:DISL:DISL:1,2016-02-03T23:00:00Z,30.2513,-88.0778,-1.72,14.87,2 
DISL,ioos:station:DISL:DISL:1,2016-02-03T23:30:00Z,30.2513,-88.0778,-1.72,15.1,2 
DISL,ioos:station:DISL:DISL:1,2016-02-04T00:00:00Z,30.2513,-88.0778,-1.72,15.33,2 
DISL,ioos:station:DISL:DISL:1,2016-02-04T00:30:00Z,30.2513,-88.0778,-1.72,14.75,2 
DISL,ioos:station:DISL:DISL:1,2016-02-04T01:00:00Z,30.2513,-88.0778,-1.72,14.81,2 
DISL,ioos:station:DISL:DISL:1,2016-02-04T01:30:00Z,30.2513,-88.0778,-1.72,14.82,2 
DISL,ioos:station:DISL:DISL:1,2016-02-04T02:00:00Z,30.2513,-88.0778,-1.72,14.8,2 
DISL,ioos:station:DISL:DISL:1,2016-02-04T02:30:00Z,30.2513,-88.0778,-1.72,14.76,2 
DISL,ioos:station:DISL:DISL:1,2016-02-04T03:00:00Z,30.2513,-88.0778,-1.72,14.84,2 
DISL,ioos:station:DISL:DISL:1,2016-02-04T03:30:00Z,30.2513,-88.0778,-1.72,14.71,2 
DISL,ioos:station:DISL:DISL:1,2016-02-04T04:00:00Z,30.2513,-88.0778,-1.72,14.81,2 
DISL,ioos:station:DISL:DISL:1,2016-02-04T04:30:00Z,30.2513,-88.0778,-1.72,14.43,2 
DISL,ioos:station:DISL:DISL:1,2016-02-04T05:00:00Z,30.2513,-88.0778,-1.72,14.06,2 
DISL,ioos:station:DISL:DISL:1,2016-02-04T05:30:00Z,30.2513,-88.0778,-1.72,13.89,2 
DISL,ioos:station:DISL:DISL:1,2016-02-04T06:00:00Z,30.2513,-88.0778,-1.72,13.8,2 
DISL,ioos:station:DISL:DISL:1,2016-02-04T06:30:00Z,30.2513,-88.0778,-1.72,13.75,2 
DISL,ioos:station:DISL:DISL:1,2016-02-04T07:00:00Z,30.2513,-88.0778,-1.72,13.73,2 
DISL,ioos:station:DISL:DISL:1,2016-02-04T07:30:00Z,30.2513,-88.0778,-1.72,13.69,2 
DISL,ioos:station:DISL:DISL:1,2016-02-04T08:00:00Z,30.2513,-88.0778,-1.72,13.59,2 
DISL,ioos:station:DISL:DISL:1,2016-02-04T08:30:00Z,30.2513,-88.0778,-1.72,13.51,2 
DISL,ioos:station:DISL:DISL:1,2016-02-04T09:00:00Z,30.2513,-88.0778,-1.72,13.46,2 
DISL,ioos:station:DISL:DISL:1,2016-02-04T09:30:00Z,30.2513,-88.0778,-1.72,13.52,2 
DISL,ioos:station:DISL:DISL:1,2016-02-04T10:00:00Z,30.2513,-88.0778,-1.72,13.42,2 
DISL,ioos:station:DISL:DISL:1,2016-02-04T10:30:00Z,30.2513,-88.0778,-1.72,13.44,2 
DISL,ioos:station:DISL:DISL:1,2016-02-04T11:00:00Z,30.2513,-88.0778,-1.72,13.39,2 
DISL,ioos:station:DISL:DISL:1,2016-02-04T11:30:00Z,30.2513,-88.0778,-1.72,13.3,2 
DISL,ioos:station:DISL:DISL:1,2016-02-04T12:00:00Z,30.2513,-88.0778,-1.72,13.22,2 
DISL,ioos:station:DISL:DISL:1,2016-02-04T12:30:00Z,30.2513,-88.0778,-1.72,13.14,2 
DISL,ioos:station:DISL:DISL:1,2016-02-04T13:00:00Z,30.2513,-88.0778,-1.72,12.99,2 
DISL,ioos:station:DISL:DISL:1,2016-02-04T13:30:00Z,30.2513,-88.0778,-1.72,12.85,2 
DISL,ioos:station:DISL:DISL:1,2016-02-04T14:00:00Z,30.2513,-88.0778,-1.72,12.78,2 
DISL,ioos:station:DISL:DISL:1,2016-02-04T14:30:00Z,30.2513,-88.0778,-1.72,12.74,2 
DISL,ioos:station:DISL:DISL:1,2016-02-04T15:00:00Z,30.2513,-88.0778,-1.72,12.68,2 
DISL,ioos:station:DISL:DISL:1,2016-02-04T15:30:00Z,30.2513,-88.0778,-1.72,12.68,2 
DISL,ioos:station:DISL:DISL:1,2016-02-04T16:00:00Z,30.2513,-88.0778,-1.72,12.21,2 
DISL,ioos:station:DISL:DISL:1,2016-02-04T16:30:00Z,30.2513,-88.0778,-1.72,12.26,2 
DISL,ioos:station:DISL:DISL:1,2016-02-04T17:00:00Z,30.2513,-88.0778,-1.72,12.37,2 
DISL,ioos:station:DISL:DISL:1,2016-02-04T17:30:00Z,30.2513,-88.0778,-1.72,12.47,2 
DISL,ioos:station:DISL:DISL:1,2016-02-04T18:00:00Z,30.2513,-88.0778,-1.72,12.56,2 
DISL,ioos:station:DISL:DISL:1,2016-02-04T18:30:00Z,30.2513,-88.0778,-1.72,12.68,2 
DISL,ioos:station:DISL:DISL:1,2016-02-04T19:00:00Z,30.2513,-88.0778,-1.72,12.88,2 
DISL,ioos:station:DISL:DISL:1,2016-02-04T19:30:00Z,30.2513,-88.0778,-1.72,13.01,2 
DISL,ioos:station:DISL:DISL:1,2016-02-04T20:00:00Z,30.2513,-88.0778,-1.72,12.97,2 
DISL,ioos:station:DISL:DISL:1,2016-02-04T20:30:00Z,30.2513,-88.0778,-1.72,13.05,2 
DISL,ioos:station:DISL:DISL:1,2016-02-04T21:00:00Z,30.2513,-88.0778,-1.72,13.48,2 
DISL,ioos:station:DISL:DISL:1,2016-02-04T21:30:00Z,30.2513,-88.0778,-1.72,13.28,2 
DISL,ioos:station:DISL:DISL:1,2016-02-04T22:00:00Z,30.2513,-88.0778,-1.72,13.22,2 
DISL,ioos:station:DISL:DISL:1,2016-02-04T22:30:00Z,30.2513,-88.0778,-1.72,13.21,2 
DISL,ioos:station:DISL:DISL:1,2016-02-04T23:00:00Z,30.2513,-88.0778,-1.72,13.13,2 
DISL,ioos:station:DISL:DISL:1,2016-02-04T23:30:00Z,30.2513,-88.0778,-1.72,13.01,2 
DISL,ioos:station:DISL:DISL:1,2016-02-05T00:00:00Z,30.2513,-88.0778,-1.72,12.93,2 
DISL,ioos:station:DISL:DISL:1,2016-02-05T00:30:00Z,30.2513,-88.0778,-1.72,12.77,2 
DISL,ioos:station:DISL:DISL:1,2016-02-05T01:00:00Z,30.2513,-88.0778,-1.72,12.7,2 
DISL,ioos:station:DISL:DISL:1,2016-02-05T01:30:00Z,30.2513,-88.0778,-1.72,12.64,2 
DISL,ioos:station:DISL:DISL:1,2016-02-05T02:00:00Z,30.2513,-88.0778,-1.72,12.52,2 
DISL,ioos:station:DISL:DISL:1,2016-02-05T02:30:00Z,30.2513,-88.0778,-1.72,12.42,2 
DISL,ioos:station:DISL:DISL:1,2016-02-05T03:00:00Z,30.2513,-88.0778,-1.72,12.39,2 
DISL,ioos:station:DISL:DISL:1,2016-02-05T03:30:00Z,30.2513,-88.0778,-1.72,12.09,2 
DISL,ioos:station:DISL:DISL:1,2016-02-05T04:00:00Z,30.2513,-88.0778,-1.72,12.15,2 
DISL,ioos:station:DISL:DISL:1,2016-02-05T04:30:00Z,30.2513,-88.0778,-1.72,12.01,2 
DISL,ioos:station:DISL:DISL:1,2016-02-05T05:00:00Z,30.2513,-88.0778,-1.72,11.75,2 
DISL,ioos:station:DISL:DISL:1,2016-02-05T05:30:00Z,30.2513,-88.0778,-1.72,11.87,2 
DISL,ioos:station:DISL:DISL:1,2016-02-05T06:00:00Z,30.2513,-88.0778,-1.72,11.89,2 
DISL,ioos:station:DISL:DISL:1,2016-02-05T06:30:00Z,30.2513,-88.0778,-1.72,11.89,2 
DISL,ioos:station:DISL:DISL:1,2016-02-05T07:00:00Z,30.2513,-88.0778,-1.72,11.85,2 
DISL,ioos:station:DISL:DISL:1,2016-02-05T07:30:00Z,30.2513,-88.0778,-1.72,11.75,2 
DISL,ioos:station:DISL:DISL:1,2016-02-05T08:00:00Z,30.2513,-88.0778,-1.72,11.61,2 
DISL,ioos:station:DISL:DISL:1,2016-02-05T08:30:00Z,30.2513,-88.0778,-1.72,11.51,2 
DISL,ioos:station:DISL:DISL:1,2016-02-05T09:00:00Z,30.2513,-88.0778,-1.72,11.41,2 
DISL,ioos:station:DISL:DISL:1,2016-02-05T09:30:00Z,30.2513,-88.0778,-1.72,11.36,2 
DISL,ioos:station:DISL:DISL:1,2016-02-05T10:00:00Z,30.2513,-88.0778,-1.72,11.35,2 
DISL,ioos:station:DISL:DISL:1,2016-02-05T10:30:00Z,30.2513,-88.0778,-1.72,11.39,2 
DISL,ioos:station:DISL:DISL:1,2016-02-05T11:00:00Z,30.2513,-88.0778,-1.72,11.4,2 
DISL,ioos:station:DISL:DISL:1,2016-02-05T11:30:00Z,30.2513,-88.0778,-1.72,11.45,2 
DISL,ioos:station:DISL:DISL:1,2016-02-05T12:00:00Z,30.2513,-88.0778,-1.72,11.51,2 
DISL,ioos:station:DISL:DISL:1,2016-02-05T12:30:00Z,30.2513,-88.0778,-1.72,11.41,2 
DISL,ioos:station:DISL:DISL:1,2016-02-05T13:00:00Z,30.2513,-88.0778,-1.72,11.39,2 
DISL,ioos:station:DISL:DISL:1,2016-02-05T13:30:00Z,30.2513,-88.0778,-1.72,11.34,2 
DISL,ioos:station:DISL:DISL:1,2016-02-05T14:00:00Z,30.2513,-88.0778,-1.72,11.45,2 
DISL,ioos:station:DISL:DISL:1,2016-02-05T14:30:00Z,30.2513,-88.0778,-1.72,11.48,2 
DISL,ioos:station:DISL:DISL:1,2016-02-05T15:00:00Z,30.2513,-88.0778,-1.72,11.35,2 
DISL,ioos:station:DISL:DISL:1,2016-02-05T15:30:00Z,30.2513,-88.0778,-1.72,11.34,2 
DISL,ioos:station:DISL:DISL:1,2016-02-05T16:00:00Z,30.2513,-88.0778,-1.72,11.08,2 
DISL,ioos:station:DISL:DISL:1,2016-02-05T16:30:00Z,30.2513,-88.0778,-1.72,11.18,2 
DISL,ioos:station:DISL:DISL:1,2016-02-05T17:00:00Z,30.2513,-88.0778,-1.72,11.19,2 
DISL,ioos:station:DISL:DISL:1,2016-02-05T17:30:00Z,30.2513,-88.0778,-1.72,11.09,2 
DISL,ioos:station:DISL:DISL:1,2016-02-05T18:00:00Z,30.2513,-88.0778,-1.72,11.21,2 
DISL,ioos:station:DISL:DISL:1,2016-02-05T18:30:00Z,30.2513,-88.0778,-1.72,11.64,2 
DISL,ioos:station:DISL:DISL:1,2016-02-05T19:00:00Z,30.2513,-88.0778,-1.72,11.68,2 
DISL,ioos:station:DISL:DISL:1,2016-02-05T19:30:00Z,30.2513,-88.0778,-1.72,11.58,2 
DISL,ioos:station:DISL:DISL:1,2016-02-05T20:00:00Z,30.2513,-88.0778,-1.72,11.41,2 
DISL,ioos:station:DISL:DISL:1,2016-02-05T20:30:00Z,30.2513,-88.0778,-1.72,11.24,2 
DISL,ioos:station:DISL:DISL:1,2016-02-05T21:00:00Z,30.2513,-88.0778,-1.72,12.05,2 
DISL,ioos:station:DISL:DISL:1,2016-02-05T21:30:00Z,30.2513,-88.0778,-1.72,13.39,2 
DISL,ioos:station:DISL:DISL:1,2016-02-05T22:00:00Z,30.2513,-88.0778,-1.72,14.25,2 
DISL,ioos:station:DISL:DISL:1,2016-02-05T22:30:00Z,30.2513,-88.0778,-1.72,14.36,2 
DISL,ioos:station:DISL:DISL:1,2016-02-05T23:00:00Z,30.2513,-88.0778,-1.72,14.07,2 
DISL,ioos:station:DISL:DISL:1,2016-02-05T23:30:00Z,30.2513,-88.0778,-1.72,14.22,2 
DISL,ioos:station:DISL:DISL:1,2016-02-06T00:00:00Z,30.2513,-88.0778,-1.72,13.67,2 
DISL,ioos:station:DISL:DISL:1,2016-02-06T00:30:00Z,30.2513,-88.0778,-1.72,12.44,2 
DISL,ioos:station:DISL:DISL:1,2016-02-06T01:00:00Z,30.2513,-88.0778,-1.72,11.28,2 
DISL,ioos:station:DISL:DISL:1,2016-02-06T01:30:00Z,30.2513,-88.0778,-1.72,11.01,2 
DISL,ioos:station:DISL:DISL:1,2016-02-06T02:00:00Z,30.2513,-88.0778,-1.72,10.87,2 
DISL,ioos:station:DISL:DISL:1,2016-02-06T02:30:00Z,30.2513,-88.0778,-1.72,10.78,2 
DISL,ioos:station:DISL:DISL:1,2016-02-06T03:00:00Z,30.2513,-88.0778,-1.72,10.68,2 
DISL,ioos:station:DISL:DISL:1,2016-02-06T03:30:00Z,30.2513,-88.0778,-1.72,10.68,2 
DISL,ioos:station:DISL:DISL:1,2016-02-06T04:00:00Z,30.2513,-88.0778,-1.72,10.56,2 
DISL,ioos:station:DISL:DISL:1,2016-02-06T04:30:00Z,30.2513,-88.0778,-1.72,10.48,2 
DISL,ioos:station:DISL:DISL:1,2016-02-06T05:00:00Z,30.2513,-88.0778,-1.72,10.38,2 
DISL,ioos:station:DISL:DISL:1,2016-02-06T05:30:00Z,30.2513,-88.0778,-1.72,10.29,2 
DISL,ioos:station:DISL:DISL:1,2016-02-06T06:00:00Z,30.2513,-88.0778,-1.72,10.3,2 
DISL,ioos:station:DISL:DISL:1,2016-02-06T06:30:00Z,30.2513,-88.0778,-1.72,10.96,2 
DISL,ioos:station:DISL:DISL:1,2016-02-06T07:00:00Z,30.2513,-88.0778,-1.72,11.23,2 
DISL,ioos:station:DISL:DISL:1,2016-02-06T07:30:00Z,30.2513,-88.0778,-1.72,11.18,2 
DISL,ioos:station:DISL:DISL:1,2016-02-06T08:00:00Z,30.2513,-88.0778,-1.72,11.16,2 
DISL,ioos:station:DISL:DISL:1,2016-02-06T08:30:00Z,30.2513,-88.0778,-1.72,11.15,2 
DISL,ioos:station:DISL:DISL:1,2016-02-06T09:00:00Z,30.2513,-88.0778,-1.72,11.09,2 
DISL,ioos:station:DISL:DISL:1,2016-02-06T09:30:00Z,30.2513,-88.0778,-1.72,11.16,2 
DISL,ioos:station:DISL:DISL:1,2016-02-06T10:00:00Z,30.2513,-88.0778,-1.72,11.25,2 
DISL,ioos:station:DISL:DISL:1,2016-02-06T10:30:00Z,30.2513,-88.0778,-1.72,11.27,2 
DISL,ioos:station:DISL:DISL:1,2016-02-06T11:00:00Z,30.2513,-88.0778,-1.72,11.29,2 
DISL,ioos:station:DISL:DISL:1,2016-02-06T11:30:00Z,30.2513,-88.0778,-1.72,11.21,2 
DISL,ioos:station:DISL:DISL:1,2016-02-06T12:00:00Z,30.2513,-88.0778,-1.72,11.15,2 
DISL,ioos:station:DISL:DISL:1,2016-02-06T12:30:00Z,30.2513,-88.0778,-1.72,11.12,2 
DISL,ioos:station:DISL:DISL:1,2016-02-06T13:00:00Z,30.2513,-88.0778,-1.72,11.1,2 
DISL,ioos:station:DISL:DISL:1,2016-02-06T13:30:00Z,30.2513,-88.0778,-1.72,10.94,2 
DISL,ioos:station:DISL:DISL:1,2016-02-06T14:00:00Z,30.2513,-88.0778,-1.72,10.82,2 
DISL,ioos:station:DISL:DISL:1,2016-02-06T14:30:00Z,30.2513,-88.0778,-1.72,10.78,2 
DISL,ioos:station:DISL:DISL:1,2016-02-06T15:00:00Z,30.2513,-88.0778,-1.72,10.82,2 
DISL,ioos:station:DISL:DISL:1,2016-02-06T15:30:00Z,30.2513,-88.0778,-1.72,10.88,2 
DISL,ioos:station:DISL:DISL:1,2016-02-06T16:00:00Z,30.2513,-88.0778,-1.72,10.93,2 
DISL,ioos:station:DISL:DISL:1,2016-02-06T16:30:00Z,30.2513,-88.0778,-1.72,11.04,2 
DISL,ioos:station:DISL:DISL:1,2016-02-06T17:00:00Z,30.2513,-88.0778,-1.72,11.27,2 
DISL,ioos:station:DISL:DISL:1,2016-02-06T17:30:00Z,30.2513,-88.0778,-1.72,11.47,2 
DISL,ioos:station:DISL:DISL:1,2016-02-06T18:00:00Z,30.2513,-88.0778,-1.72,11.51,2 
DISL,ioos:station:DISL:DISL:1,2016-02-06T18:30:00Z,30.2513,-88.0778,-1.72,11.59,2 
DISL,ioos:station:DISL:DISL:1,2016-02-06T19:00:00Z,30.2513,-88.0778,-1.72,11.71,2 
DISL,ioos:station:DISL:DISL:1,2016-02-06T19:30:00Z,30.2513,-88.0778,-1.72,11.74,2 
DISL,ioos:station:DISL:DISL:1,2016-02-06T20:00:00Z,30.2513,-88.0778,-1.72,11.83,2 
DISL,ioos:station:DISL:DISL:1,2016-02-06T20:30:00Z,30.2513,-88.0778,-1.72,12.71,2 
DISL,ioos:station:DISL:DISL:1,2016-02-06T21:00:00Z,30.2513,-88.0778,-1.72,13.18,2 
DISL,ioos:station:DISL:DISL:1,2016-02-06T21:30:00Z,30.2513,-88.0778,-1.72,13.34,2 
DISL,ioos:station:DISL:DISL:1,2016-02-06T22:00:00Z,30.2513,-88.0778,-1.72,13.43,2 
DISL,ioos:station:DISL:DISL:1,2016-02-06T22:30:00Z,30.2513,-88.0778,-1.72,13.47,2 
DISL,ioos:station:DISL:DISL:1,2016-02-06T23:00:00Z,30.2513,-88.0778,-1.72,13.44,2 
DISL,ioos:station:DISL:DISL:1,2016-02-06T23:30:00Z,30.2513,-88.0778,-1.72,13.71,2 